Powrót do katalogu

STARLINK-4265

AktywnyŁącznośćVLEO
NORAD 53011·PAYLOAD·🇺🇸 United States

Wystrzelony Jul 7, 2022 z Cape Canaveral Space Force Station

Loading…

Następne Przeloty (najbliższe 24 godziny)

TLE

ŚwieżeSource: CelesTrak SupGP

Epoka: Sep 14, 2026, 22:04 UTC

1 53011C 22076AB  26257.91993056  .00012358  00000+0  36524-3 0  2579
2 53011  53.1592 307.4779 0001260  81.0028 234.5791 15.34374821    12

Śledź STARLINK-4265 w czasie rzeczywistym z AllMySat

Download on the App Store